LogoCoinalyze
    Ad-Free Version Главная Рынки Ставки финансирования
    Фьючерсные данные
    • Агрегированные данные (Коины)
    • Индивидуальные графики
    • Глобальные графики
    Оповещения
    TA
    Bitcoin Ethereum BNB Ripple Tron ZCash Dogecoin Monero UNUS SED LEO Chainlink Cardano Stellar Lumens Bitcoin Cash Litecoin Hedera Cronos Polkadot Ethereum Classic Algorand Quant Cosmos VeChain Dash Bitcoin SV BitTorrent Terra Decred Tezos Iota The Graph THETA Decentraland NEO Chiliz MultiversX Golem Basic Attention Token Horizen Qtum 0x DigiByte Beam FTX Token RIF Token Holo FUNToken Zilliqa Ontology Nano aelf Enjin Coin Ravencoin Mask Network Siacoin Verge Status WINk Waves IoTeX iExec RLC Power Ledger Steem Kyber Network Crystal Lisk Ark Ardor IOST WOO Network WAX Icon Storj Loopring Wanchain Bitcoin Diamond AdEx Bitcoin Gold Augur OmiseGO NEM MonaCoin BitShares Ren Komodo V Systems Nuls Mithril SOLVE Maker EOS Aion Nebulas HedgeTrade Bread Fetch.ai TomoChain Polygon Fantom Waltonchain GXChain Bytom Metaverse ETP MaidSafeCoin QASH
    Заказать:
    Еще
    • API
    • Паттерны свечей
    • Пожертвования
    • Контактная
    • Карта сайта
    • Privacy Policy
    • Disclaimer
    • Theme:
    Русский
    • English
    • Français
    • Deutsch
    • Türkçe
    • Nederlands
    • Português (BR)
    • Español
    • 한국어
    • 简体中文
    • 日本語
     
    Войти / Подписаться
    Markets/ Pepe/ PEPE к TRY/ PEPETRY Binance
    Trades
    WL
    Чат
    Стат
    Новости
    ⦷
    AAA
    0.00016421 13997521.00000000 13:51:10
    0.00016418 186381.00000000 13:51:10
    0.00016414 54155043.00000000 13:51:09
    0.00016415 91361.00000000 13:51:09
    0.00016416 52189400.00000000 13:51:09
    0.00016420 15399405.00000000 13:51:09
    0.00016430 3000000.00000000 13:51:05
    0.00016425 91300.00000000 13:51:01
    0.00016420 186300.00000000 13:51:00
    0.00016422 3000000.00000000 13:50:59
    0.00016425 3000000.00000000 13:50:57
    0.00016421 91300.00000000 13:50:51
    0.00016420 3000000.00000000 13:50:46
    0.00016414 62143.00000000 13:50:40
    0.00016433 120708.00000000 13:50:27
    0.00016433 4868252.00000000 13:50:18
    0.00016435 59.00000000 13:50:07
    0.00016435 18114200.00000000 13:50:07
    0.00016435 155947295.00000000 13:50:07
    0.00016435 24408800.00000000 13:50:07
    0.00016435 48507200.00000000 13:50:07
    0.00016435 17601700.00000000 13:50:07
    0.00016435 31336700.00000000 13:50:07
    0.00016435 7529600.00000000 13:50:07
    0.00016435 103025900.00000000 13:50:06
    0.00016435 56357100.00000000 13:50:06
    0.00016435 154762275.00000000 13:50:06
    0.00016435 684557300.00000000 13:50:06
    0.00016435 12182000.00000000 13:50:06
    0.00016435 121691.00000000 13:49:46
    0.00016429 91319.00000000 13:49:44
    0.00016428 6106518.00000000 13:49:40
    0.00016451 6045225.00000000 13:49:11
    0.00016448 347906300.00000000 13:49:08
    0.00016448 104378800.00000000 13:49:08
    0.00016448 1022857900.00000000 13:49:08
    0.00016446 186075.00000000 13:49:07
    0.00016458 185883.00000000 13:49:00
    0.00016464 235543900.00000000 13:48:58
    0.00016464 79739700.00000000 13:48:58
    0.00016464 26348200.00000000 13:48:58
    0.00016464 21800300.00000000 13:48:58
    0.00016464 22425000.00000000 13:48:57
    0.00016464 35031200.00000000 13:48:57
    0.00016464 28486100.00000000 13:48:57
    0.00016479 75107883.00000000 13:48:45
    0.00016484 52189400.00000000 13:48:33
    0.00016482 185715.00000000 13:48:33
    0.00016481 52189400.00000000 13:48:33
    0.00016472 418083140.00000000 13:48:29
    0.00016472 138059900.00000000 13:48:29
    0.00016472 209678200.00000000 13:48:29
    0.00016467 91117.00000000 13:47:42
    0.00016461 185895.00000000 13:47:42
    0.00016472 608989.00000000 13:47:19
    0.00016470 185715.00000000 13:46:30
    0.00016513 20003796.00000000 13:46:20
    0.00016513 102400000.00000000 13:46:18
    0.00016513 102400000.00000000 13:46:16
    0.00016514 3851000.00000000 13:46:16
    0.00016513 3850000.00000000 13:46:16
    0.00016513 74137995.00000000 13:46:15
    0.00016518 28262005.00000000 13:46:15
    0.00016518 8497799.00000000 13:46:15
    0.00016518 3850000.00000000 13:46:14
    0.00016518 5481179.00000000 13:46:14
    0.00016518 102400000.00000000 13:46:13
    0.00016518 52442208.00000000 13:46:10
    0.00016518 10962358.00000000 13:46:10
    0.00016525 46.00000000 13:46:10
    0.00016525 338620200.00000000 13:46:10
    0.00016525 155395800.00000000 13:46:10
    0.00016525 102400000.00000000 13:46:10
    0.00016525 3848000.00000000 13:46:10
    0.00016548 70000.00000000 13:46:01
    0.00016546 70000.00000000 13:46:01
    0.00016544 70000.00000000 13:46:01
    0.00016542 70000.00000000 13:46:01
    0.00016529 1704327.00000000 13:45:59
    0.00016535 67928638.00000000 13:45:58
    0.00016535 116788321.00000000 13:45:58
    0.00016535 116788321.00000000 13:45:58
    0.00016535 116788321.00000000 13:45:58
    0.00016535 116788321.00000000 13:45:58
    0.00016535 116788321.00000000 13:45:58
    0.00016535 765921762.00000000 13:45:58
    0.00016535 116788321.00000000 13:45:58
    0.00016535 52280172.00000000 13:45:58
    0.00016533 52280183.00000000 13:45:58
    0.00016531 88634601.00000000 13:45:58
    0.00016528 52189400.00000000 13:45:58
    0.00016517 90747.00000000 13:45:56
    0.00016519 90747.00000000 13:45:56
    0.00016522 3850000.00000000 13:45:56
    0.00016540 70000.00000000 13:45:45
    0.00016538 70000.00000000 13:45:45
    0.00016536 70000.00000000 13:45:44
    0.00016534 70.00000000 13:45:44
    0.00016534 47439300.00000000 13:45:43
    0.00016528 1.00000000 13:45:40
    Выйти
    AAA
    Помощь
    🙂 🤣 😎 🤗 😛 😉 😜 🤑 🤔 😑 😴 😕 🙃 😲 😇 🙁 😢 😬 😟 😠 🕺 🏃 💪 ✌ 👌 👍 👎 👏 👋 🤝 🍺 🍻 🐋 🐟 🦈 🗽 🚄 ✈ 🛑 🚀 🏦 🌚 ⭐ 🌞 ⚡ 🏆 💰 💲 🔨 ❓ ❗ 💯 🔶 🏁
    ☺
    Войти или Подписаться и Чат
    24 Часа
    Изменения
    -2.91%
    Объем
    585,670,589,144
    Хай
    0.00017090
    Лоу
    0.00016256
    7 Дней
    Изменения
    -10.60%
    Объем
    6,013,147,823,555
    Хай
    0.00019297
    Лоу
    0.00016237
    30 Дней
    Изменения
    +19.12%
    Объем
    37,977,464,728,719
    Хай
    0.00021642
    Лоу
    0.00012111
    Pepe price rallies 25% as whale demand and futures interest surge
    Key takeaways Pepe has gained 25% this week, including a combined 22% advance over the previous two days. Seven whale transactions worth more than $1 million each occurred Thursday, the highest...
    coinjournal.net
    Aug 21, 2026 08:41
    PEPE Supply on Exchanges Just Took a Massive Hit – What’s Next?
    A drop in PEPE exchange balances has added to bullish expectations despite muted trader interest.
    cryptopotato.com
    Aug 6, 2026 20:02
    PEPE Exchange Outflows Hit Nearly 2-Year High as Whales Accumulate
    Pepe (PEPE) recorded its largest single-day exchange outflow since November 2024, with 4.54 trillion tokens leaving trading platforms, signaling that holders are moving supply away from immediate...
    beincrypto.com
    Aug 6, 2026 04:57
    Meme Coin Based on White House Shooter Conspiracy Rallies 320%
    $HENRY surged 300% after a 2023 Pepe tweet appeared to name the White House shooter, fueling a viral time-travel meme. The post Meme Coin Based on White House Shooter Conspiracy Rallies 320%...
    beincrypto.com
    Apr 27, 2026 16:11
    PEPE surges 4% as market sentiment improves, eyes Key resistance breakout
    Key takeaways Pepe extends gains on Wednesday, stretching its rally from the 50-day EMA. Derivatives data show heightened retail activity as risk-on sentiment returns to the market. Pepe (PEPE) is...
    coinjournal.net
    Apr 22, 2026 11:44
    Why The PEPE Price Could Stage A 55X Rally To Reach New $0.0001 ATH
    The PEPE price has now started to edge back into bullish conversations after the recent inflows into the crypto market. The last time PEPE’s weekly chart printed the kind of structure now...
    newsbtc.com
    Apr 21, 2026 15:30
    Pepe (PEPE) surges 9%, drawing interest from whales
    Key takeaways PEPE is up 9% in the last 24 hours, making it one of the best performers among the top 50 cryptocurrencies by market cap. The rally comes amid renewed interest from whales and retail...
    coinjournal.net
    Apr 16, 2026 07:40
    Murad Says SPX6900 (SPX) Is Primed for a Rally — Is He Right This Time?
    Crypto influencer Murad Mahmudov claims SPX6900 (SPX) is stabilizing at the same market cap level where Dogecoin (DOGE) and Pepe (PEPE) consolidated before their explosive rallies. The...
    beincrypto.com
    Apr 5, 2026 21:36
    The Shiba Inu Of This Cycle: Analyst Shares Why It Is Better To Buy PEPE Now
    In the bull market cycle of 2021-2022, the Shiba Inu meme coin made waves in a way that changed the face of meme coins forever. This came after Dogecoin’s initial 36,000% rally, and Shiba Inu...
    newsbtc.com
    Apr 4, 2026 07:30
    PEPE Explodes by 18% Amid Altcoin Rally, BTC Tapped $74K: Market Watch
    The frog-themed meme coin is today's biggest gainer, followed by TAO, DOT, and BONK.
    cryptopotato.com
    Mar 16, 2026 10:56
    Should PEPE traders brace for volatility as short squeeze potential builds?
    The memecoin market has seen its collective market capitalization drop by 48% over the past year, and 6.9% over the past month, according to CoinMarketCap. According to Glassnode, the memecoin...
    ambcrypto.com
    Mar 7, 2026 18:00
    Просто напечатайте соответствующую команду в чате. Заменить никнейм 1 на действительный никнейм
    • /ignore nick1 Игнорировать пользователя чатом
    • /unignore nick1 Перестать игнорировать пользователя чатом
    • /ignorelist Показать проигнорированных пользователей чатом